Location: Boullarre
(49.1305°N, 3.0047°E)
Time: 14:11:07
(UTC+00:00)

Cosmos 2278 - Pass Details

Date: 03 February 2023
Orbit: 838 x 853 km, 71.1° (Epoch: 22 March)

Event Time Altitude Azimuth Distance (km) Brightness Sun altitude
Rises 18:00:34 0° 219° (SW) 3,390 7.7 -12.2°
Reaches altitude 10° 18:03:03 10° 224° (SW) 2,461 7.0 -12.6°
Maximum altitude 18:08:37 58° 303° (WNW) 982 4.3 -13.5°
Drops below altitude 10° 18:14:15 10° 23° (NNE) 2,487 5.8 -14.4°
Enters shadow 18:16:06 - 26° (NNE) 3,178 6.4 -14.7°
